TimePDT,TemperatureF,Dew PointF,Humidity,Sea Level PressureIn,VisibilityMPH,Wind Direction,Wind SpeedMPH,Gust SpeedMPH,PrecipitationIn,Events,Conditions,WindDirDegrees,DateUTC
12:56 AM,87.1,30.0,13,29.51,10.0,West,10.4,-,N/A,,Clear,260,2013-09-18 07:56:00
1:56 AM,82.9,32.0,16,29.52,10.0,SE,4.6,-,N/A,,Clear,140,2013-09-18 08:56:00
2:56 AM,82.0,34.0,18,29.50,10.0,WSW,5.8,-,N/A,,Clear,250,2013-09-18 09:56:00
3:56 AM,80.1,35.1,20,29.50,10.0,West,3.5,-,N/A,,Clear,270,2013-09-18 10:56:00
4:56 AM,79.0,34.0,20,29.51,10.0,SW,5.8,-,N/A,,Clear,230,2013-09-18 11:56:00
5:56 AM,79.0,35.1,20,29.54,10.0,WSW,4.6,-,N/A,,Clear,250,2013-09-18 12:56:00
6:56 AM,78.1,36.0,22,29.56,10.0,SW,4.6,-,N/A,,Clear,230,2013-09-18 13:56:00
7:56 AM,81.0,39.9,23,29.58,10.0,ENE,5.8,-,N/A,,Clear,70,2013-09-18 14:56:00
8:56 AM,84.9,39.0,20,29.60,10.0,Calm,Calm,-,N/A,,Clear,0,2013-09-18 15:56:00
9:56 AM,89.1,36.0,15,29.60,10.0,Calm,Calm,-,N/A,,Clear,0,2013-09-18 16:56:00
10:56 AM,93.9,35.1,13,29.60,10.0,Variable,3.5,-,N/A,,Clear,0,2013-09-18 17:56:00
11:56 AM,95.0,35.1,12,29.58,10.0,ENE,6.9,-,N/A,,Clear,70,2013-09-18 18:56:00
12:56 PM,96.1,35.1,12,29.57,10.0,Calm,Calm,-,N/A,,Clear,0,2013-09-18 19:56:00
1:56 PM,98.1,36.0,11,29.55,10.0,Variable,6.9,-,N/A,,Clear,0,2013-09-18 20:56:00
2:56 PM,102.0,35.1,10,29.53,10.0,NNE,3.5,-,N/A,,Clear,30,2013-09-18 21:56:00
3:56 PM,100.9,34.0,10,29.52,10.0,NW,6.9,-,N/A,,Clear,320,2013-09-18 22:56:00
4:56 PM,100.9,21.0,6,29.51,10.0,WSW,9.2,-,N/A,,Clear,240,2013-09-18 23:56:00
5:56 PM,99.0,19.0,6,29.52,10.0,SW,9.2,-,N/A,,Clear,230,2013-09-19 00:56:00
6:56 PM,93.9,25.0,8,29.53,10.0,SSW,6.9,-,N/A,,Clear,210,2013-09-19 01:56:00
7:56 PM,91.0,27.0,10,29.55,10.0,West,10.4,-,N/A,,Clear,260,2013-09-19 02:56:00
8:56 PM,89.1,27.0,11,29.56,10.0,West,9.2,-,N/A,,Clear,260,2013-09-19 03:56:00
9:56 PM,84.9,28.0,13,29.57,10.0,NNE,8.1,-,N/A,,Clear,30,2013-09-19 04:56:00
10:56 PM,84.0,33.1,16,29.57,10.0,SSW,3.5,-,N/A,,Clear,200,2013-09-19 05:56:00
11:56 PM,82.0,30.0,15,29.58,10.0,SSW,3.5,-,N/A,,Clear,210,2013-09-19 06:56:00